EB5ETD Weather Reports


Display with metric or nautical units.
time (UTC)temp
F
wind
direction
speed
MPH
gust
MPH
rain 1hr
in
rain 24hr
in
rain mn
in
humidity
%
barometer
mb
20260901170504 81 48 2.0 6.0 0.00 0.00 0.00 65 1025.0
20260901170003 82 65 2.0 6.0 0.00 0.00 0.00 63 1024.9
20260901165503 82 60 3.0 7.0 0.00 0.00 0.00 63 1024.8
20260901165004 82 88 3.0 6.0 0.00 0.00 0.00 62 1024.8
20260901164504 83 58 2.0 6.0 0.00 0.00 0.00 60 1024.6
20260901164004 84 113 1.0 3.0 0.00 0.00 0.00 58 1024.6
20260901163503 84 329 0.0 2.0 0.00 0.00 0.00 57 1024.6
20260901163004 83 9 1.0 2.0 0.00 0.00 0.00 59 1024.6
20260901162504 83 45 2.0 5.0 0.00 0.00 0.00 60 1024.8
20260901162004 85 54 2.0 3.0 0.00 0.00 0.00 58 1024.6
20260901161004 82 64 2.0 5.0 0.00 0.00 0.00 60 1024.6
20260901160004 82 62 3.0 6.0 0.00 0.00 0.00 61 1024.5
20260901155503 82 46 3.0 6.0 0.00 0.00 0.00 61 1024.5
20260901155004 82 58 3.0 7.0 0.00 0.00 0.00 61 1024.7
20260901154004 82 48 3.0 7.0 0.00 0.00 0.00 61 1024.6
20260901153003 84 45 3.0 7.0 0.00 0.00 0.00 60 1024.8
20260901152503 83 47 3.0 6.0 0.00 0.00 0.00 61 1024.8
20260901152003 82 33 2.0 6.0 0.00 0.00 0.00 62 1025.0
20260901150503 82 68 4.0 8.0 0.00 0.00 0.00 63 1025.4
20260901150004 81 46 2.0 9.0 0.00 0.00 0.00 64 1025.5
20260901145004 81 53 4.0 7.0 0.00 0.00 0.00 65 1025.9
20260901144503 80 48 3.0 6.0 0.00 0.00 0.00 66 1025.9
20260901144004 80 47 2.0 7.0 0.00 0.00 0.00 65 1025.8
20260901143505 80 55 5.0 7.0 0.00 0.00 0.00 66 1026.0
20260901143003 80 58 3.0 8.0 0.00 0.00 0.00 66 1026.1
20260901142004 82 44 2.0 6.0 0.00 0.00 0.00 64 1026.4
20260901141504 82 50 2.0 8.0 0.00 0.00 0.00 64 1026.4
20260901140504 82 61 4.0 9.0 0.00 0.00 0.00 64 1026.2
20260901135504 82 40 2.0 7.0 0.00 0.00 0.00 63 1026.2
20260901135003 82 39 4.0 9.0 0.00 0.00 0.00 64 1026.0
20260901134504 82 39 5.0 9.0 0.00 0.00 0.00 64 1026.2
20260901134004 83 56 5.0 13.0 0.00 0.00 0.00 63 1026.0
20260901133003 83 46 5.0 9.0 0.00 0.00 0.00 62 1026.1
20260901132504 83 40 5.0 10.0 0.00 0.00 0.00 62 1026.3
20260901132004 84 58 5.0 10.0 0.00 0.00 0.00 59 1026.2
20260901131504 84 71 3.0 7.0 0.00 0.00 0.00 59 1026.3
20260901131003 83 49 3.0 6.0 0.00 0.00 0.00 59 1026.3
20260901130504 84 74 1.0 5.0 0.00 0.00 0.00 57 1026.3
20260901130004 84 60 1.0 2.0 0.00 0.00 0.00 57 1026.4
20260901125504 84 60 1.0 3.0 0.00 0.00 0.00 57 1026.5
20260901125004 83 65 2.0 3.0 0.00 0.00 0.00 58 1026.4
20260901124504 83 60 2.0 6.0 0.00 0.00 0.00 58 1026.3
20260901124004 83 37 1.0 6.0 0.00 0.00 0.00 59 1026.2
20260901123504 83 332 2.0 5.0 0.00 0.00 0.00 58 1026.2
20260901121503 81 356 2.0 10.0 0.00 0.00 0.00 60 1026.3
20260901121004 82 58 3.0 7.0 0.00 0.00 0.00 60 1026.3
20260901120504 82 51 3.0 5.0 0.00 0.00 0.00 61 1026.5
20260901120003 82 57 5.0 8.0 0.00 0.00 0.00 62 1026.4
20260901115504 82 48 3.0 7.0 0.00 0.00 0.00 60 1026.3
20260901115004 82 48 1.0 5.0 0.00 0.00 0.00 60 1026.6
20260901114004 83 34 5.0 8.0 0.00 0.00 0.00 60 1026.3
20260901113504 83 207 2.0 3.0 0.00 0.00 0.00 60 1026.5
20260901113004 82 119 1.0 5.0 0.00 0.00 0.00 59 1026.6
20260901112504 81 47 2.0 6.0 0.00 0.00 0.00 62 1027.0
20260901112004 82 69 2.0 3.0 0.00 0.00 0.00 62 1027.0
20260901111503 80 8 1.0 7.0 0.00 0.00 0.00 63 1027.0
20260901111004 80 74 2.0 5.0 0.00 0.00 0.00 64 1027.3
20260901110504 79 283 1.0 2.0 0.00 0.00 0.00 64 1027.7
20260901105504 79 78 1.0 3.0 0.00 0.00 0.00 65 1027.5
20260901105004 80 59 3.0 6.0 0.00 0.00 0.00 65 1027.4
20260901104005 78 50 2.0 5.0 0.00 0.00 0.00 66 1027.4
20260901103504 77 73 1.0 3.0 0.00 0.00 0.00 68 1027.6
20260901103004 77 54 1.0 3.0 0.00 0.00 0.00 69 1027.9
20260901102504 77 78 1.0 5.0 0.00 0.00 0.00 69 1027.8
20260901101504 77 57 1.0 3.0 0.00 0.00 0.00 69 1027.9
20260901101003 76 64 2.0 6.0 0.00 0.00 0.00 70 1027.8
20260901100003 77 34 3.0 5.0 0.00 0.00 0.00 69 1027.7
20260901095504 77 74 1.0 7.0 0.00 0.00 0.00 69 1027.6
20260901094504 78 57 2.0 3.0 0.00 0.00 0.00 68 1027.8
20260901094004 78 48 1.0 5.0 0.00 0.00 0.00 68 1027.6
20260901093504 78 43 2.0 3.0 0.00 0.00 0.00 68 1027.9
20260901093004 77 53 1.0 2.0 0.00 0.00 0.00 69 1027.7
20260901092504 77 63 1.0 3.0 0.00 0.00 0.00 69 1027.5
20260901092004 77 112 1.0 5.0 0.00 0.00 0.00 69 1027.5
20260901091504 78 344 1.0 3.0 0.00 0.00 0.00 68 1027.6
20260901091004 78 89 3.0 6.0 0.00 0.00 0.00 69 1027.7
20260901090504 77 60 2.0 5.0 0.00 0.00 0.00 68 1027.6
20260901090004 77 51 3.0 7.0 0.00 0.00 0.00 70 1027.3
20260901085504 77 60 2.0 6.0 0.00 0.00 0.00 70 1027.4
20260901085004 76 78 2.0 5.0 0.00 0.00 0.00 71 1027.5
20260901084503 76 49 2.0 6.0 0.00 0.00 0.00 71 1027.6
20260901084004 76 81 3.0 5.0 0.00 0.00 0.00 72 1027.5
20260901083504 76 92 2.0 6.0 0.00 0.00 0.00 73 1027.4
20260901083004 76 74 3.0 6.0 0.00 0.00 0.00 73 1027.3
20260901082503 75 55 2.0 6.0 0.00 0.00 0.00 73 1027.1
20260901082003 75 71 2.0 5.0 0.00 0.00 0.00 73 1027.2
20260901081503 75 67 1.0 6.0 0.00 0.00 0.00 73 1027.1
20260901081003 74 57 3.0 5.0 0.00 0.00 0.00 75 1027.1
20260901080503 75 69 2.0 5.0 0.00 0.00 0.00 74 1027.3
20260901080004 75 51 2.0 5.0 0.00 0.00 0.00 75 1027.1
20260901075504 75 66 2.0 6.0 0.00 0.00 0.00 75 1027.0
20260901075004 74 48 1.0 5.0 0.00 0.00 0.00 75 1027.1
20260901074004 73 200 1.0 2.0 0.00 0.00 0.00 77 1027.2
20260901073004 73 223 1.0 2.0 0.00 0.00 0.00 75 1026.9
20260901072504 72 76 1.0 3.0 0.00 0.00 0.00 77 1026.9
20260901072004 72 225 1.0 2.0 0.00 0.00 0.00 77 1027.1
20260901071004 72 225 1.0 1.0 0.00 0.00 0.00 78 1026.9
20260901070504 71 220 0.0 2.0 0.00 0.00 0.00 79 1027.0
20260901065503 69 194 0.0 1.0 0.00 0.00 0.00 81 1027.0
20260901065003 69 194 1.0 1.0 0.00 0.00 0.00 81 1026.9
20260901064504 69 194 0.0 0.0 0.00 0.00 0.00 81 1026.9
20260901063504 69 194 0.0 0.0 0.00 0.00 0.00 81 1026.6
20260901063004 68 194 0.0 1.0 0.00 0.00 0.00 82 1026.5
20260901062503 68 194 0.0 0.0 0.00 0.00 0.00 82 1026.6
20260901062004 67 194 0.0 1.0 0.00 0.00 0.00 83 1026.5
20260901061504 67 194 1.0 2.0 0.00 0.00 0.00 84 1026.3
20260901060503 66 194 0.0 1.0 0.00 0.00 0.00 85 1026.2
20260901060003 66 194 1.0 2.0 0.00 0.00 0.00 85 1026.4
20260901055504 66 194 0.0 1.0 0.00 0.00 0.00 86 1026.4
20260901055003 66 194 0.0 1.0 0.00 0.00 0.00 86 1026.2
20260901054504 66 193 0.0 1.0 0.00 0.00 0.00 85 1026.4
20260901054005 66 216 1.0 2.0 0.00 0.00 0.00 85 1026.2
20260901053504 67 226 0.0 1.0 0.00 0.00 0.00 86 1026.2
20260901053004 67 226 1.0 1.0 0.00 0.00 0.00 85 1026.0
20260901052504 67 226 0.0 0.0 0.00 0.00 0.00 85 1025.8
20260901052004 67 226 0.0 0.0 0.00 0.00 0.00 85 1025.5
20260901051503 67 226 0.0 0.0 0.00 0.00 0.00 85 1025.6
20260901050004 67 226 1.0 1.0 0.00 0.00 0.00 84 1025.4
20260901045504 67 226 1.0 1.0 0.00 0.00 0.00 84 1025.3
20260901045004 67 226 0.0 1.0 0.00 0.00 0.00 84 1025.3
20260901044506 67 225 1.0 1.0 0.00 0.00 0.00 85 1025.4
20260901043503 67 189 1.0 2.0 0.00 0.00 0.00 84 1025.4
20260901043004 67 193 1.0 2.0 0.00 0.00 0.00 84 1025.4
20260901042503 68 199 1.0 2.0 0.00 0.00 0.00 84 1025.4
20260901042005 68 238 0.0 1.0 0.00 0.00 0.00 84 1025.2
20260901041004 67 236 1.0 2.0 0.00 0.00 0.00 85 1025.6
20260901040504 67 229 0.0 2.0 0.00 0.00 0.00 84 1025.3
20260901040003 67 220 1.0 3.0 0.00 0.00 0.00 84 1025.2
20260901035504 68 248 1.0 2.0 0.00 0.00 0.00 83 1025.2
20260901035004 68 244 0.0 2.0 0.00 0.00 0.00 84 1025.3
20260901034504 68 216 1.0 2.0 0.00 0.00 0.00 84 1025.6
20260901034004 68 231 1.0 2.0 0.00 0.00 0.00 85 1025.5
20260901033504 68 236 1.0 3.0 0.00 0.00 0.00 84 1025.5
20260901033004 68 220 2.0 3.0 0.00 0.00 0.00 83 1025.6
20260901032503 68 39 1.0 3.0 0.00 0.00 0.00 84 1025.8
20260901031504 68 222 1.0 2.0 0.00 0.00 0.00 84 1025.7
20260901031004 68 226 1.0 2.0 0.00 0.00 0.00 84 1025.8
20260901030503 68 352 1.0 2.0 0.00 0.00 0.00 84 1025.9
20260901030004 68 240 0.0 2.0 0.00 0.00 0.00 84 1025.8
20260901025504 68 237 1.0 2.0 0.00 0.00 0.00 84 1025.6
20260901025003 68 134 0.0 2.0 0.00 0.00 0.00 84 1025.6
20260901024504 68 137 1.0 2.0 0.00 0.00 0.00 84 1025.7
20260901024004 68 146 0.0 1.0 0.00 0.00 0.00 84 1025.7
20260901023503 68 157 0.0 2.0 0.00 0.00 0.00 84 1025.6
20260901022504 68 154 1.0 2.0 0.00 0.00 0.00 84 1025.7
20260901022004 68 167 1.0 1.0 0.00 0.00 0.00 84 1025.9
20260901021503 69 219 1.0 3.0 0.00 0.00 0.00 84 1025.8
20260901021003 69 246 0.0 1.0 0.00 0.00 0.00 84 1025.8
20260901020504 69 246 1.0 2.0 0.00 0.00 0.00 84 1025.8
20260901020004 69 235 1.0 2.0 0.00 0.00 0.00 84 1026.0
20260901015503 69 205 0.0 1.0 0.00 0.00 0.00 83 1025.7
20260901014504 69 159 1.0 2.0 0.00 0.00 0.00 83 1025.9
20260901014004 69 119 0.0 1.0 0.00 0.00 0.00 83 1025.9
20260901013504 70 119 0.0 1.0 0.00 0.00 0.00 83 1025.9
20260901013004 70 119 0.0 1.0 0.00 0.00 0.00 82 1026.1
20260901012504 70 120 0.0 2.0 0.00 0.00 0.00 82 1026.2
20260901012003 70 126 0.0 1.0 0.00 0.00 0.00 82 1026.1
20260901011503 70 125 0.0 1.0 0.00 0.00 0.00 82 1026.4
20260901011004 70 113 1.0 2.0 0.00 0.00 0.00 82 1026.3
20260901005504 70 213 1.0 1.0 0.00 0.00 0.00 84 1026.5
20260901004504 70 213 0.0 1.0 0.00 0.00 0.00 83 1026.4
20260901004004 70 221 1.0 1.0 0.00 0.00 0.00 83 1026.6
20260901003004 70 204 1.0 2.0 0.00 0.00 0.00 83 1026.5
20260901001004 70 232 1.0 1.0 0.00 0.00 0.00 83 1026.6
20260901000504 70 236 1.0 1.0 0.00 0.00 0.00 83 1026.6
20260901000003 70 237 1.0 1.0 0.00 0.00 0.00 83 1026.5
20260831235503 70 242 1.0 2.0 0.00 0.00 0.00 83 1026.6
20260831235004 70 260 1.0 3.0 0.00 0.00 0.00 83 1026.7
20260831234504 70 246 1.0 3.0 0.00 0.00 0.00 83 1026.5
20260831234003 71 228 1.0 3.0 0.00 0.00 0.00 82 1026.2
20260831233504 71 146 0.0 2.0 0.00 0.00 0.00 82 1026.2
20260831233004 71 148 1.0 2.0 0.00 0.00 0.00 82 1026.2
20260831232504 71 210 1.0 3.0 0.00 0.00 0.00 81 1026.3
20260831231505 72 244 2.0 3.0 0.00 0.00 0.00 81 1026.3
20260831231004 72 259 1.0 3.0 0.00 0.00 0.00 81 1026.3
20260831230504 71 223 2.0 5.0 0.00 0.00 0.00 81 1026.4
20260831230004 71 236 1.0 3.0 0.00 0.00 0.00 82 1026.4
20260831225503 71 261 1.0 2.0 0.00 0.00 0.00 84 1026.4
20260831225004 71 261 2.0 3.0 0.00 0.00 0.00 85 1026.3
20260831224004 71 319 2.0 3.0 0.00 0.00 0.00 86 1026.2
20260831223504 70 27 1.0 1.0 0.00 0.00 0.00 85 1026.4
20260831223004 70 27 0.0 1.0 0.00 0.00 0.00 85 1026.4
20260831222503 70 27 0.0 1.0 0.00 0.00 0.00 85 1026.5
20260831222003 70 27 0.0 1.0 0.00 0.00 0.00 85 1026.5
20260831221504 71 27 1.0 1.0 0.00 0.00 0.00 86 1026.6
20260831221007 71 27 0.0 1.0 0.00 0.00 0.00 87 1026.5
20260831220504 72 27 0.0 2.0 0.00 0.00 0.00 88 1026.5
20260831220003 72 60 1.0 2.0 0.00 0.00 0.00 88 1026.4
20260831215503 72 48 1.0 3.0 0.00 0.00 0.00 87 1026.4
20260831214504 72 83 0.0 2.0 0.00 0.00 0.00 86 1026.3
20260831214004 73 70 1.0 3.0 0.00 0.00 0.00 86 1026.4
20260831213504 73 89 1.0 3.0 0.00 0.00 0.00 85 1026.6
20260831213004 73 69 1.0 3.0 0.00 0.00 0.00 85 1026.2
20260831212503 73 47 1.0 3.0 0.00 0.00 0.00 84 1026.2
20260831212004 73 64 1.0 2.0 0.00 0.00 0.00 83 1026.0
20260831211504 74 70 1.0 2.0 0.00 0.00 0.00 83 1026.0
20260831210504 74 75 0.0 2.0 0.00 0.00 0.00 82 1026.0
20260831210004 74 75 0.0 1.0 0.00 0.00 0.00 82 1026.0
20260831205504 74 77 1.0 3.0 0.00 0.00 0.00 81 1025.9
20260831205003 74 67 1.0 3.0 0.00 0.00 0.00 81 1025.8
20260831204504 74 91 0.0 2.0 0.00 0.00 0.00 80 1025.8
20260831203504 75 80 1.0 2.0 0.00 0.00 0.00 79 1025.6
20260831203005 75 81 1.0 2.0 0.00 0.00 0.00 79 1025.5
20260831202503 75 64 1.0 3.0 0.00 0.00 0.00 79 1025.2
20260831202003 75 95 1.0 2.0 0.00 0.00 0.00 78 1025.4
20260831201504 75 86 1.0 3.0 0.00 0.00 0.00 78 1025.3
20260831201005 75 11 2.0 3.0 0.00 0.00 0.00 78 1025.2
20260831200504 75 91 0.0 2.0 0.00 0.00 0.00 77 1025.1
20260831200004 76 57 1.0 3.0 0.00 0.00 0.00 77 1025.0
20260831195504 76 64 0.0 3.0 0.00 0.00 0.00 76 1024.9
20260831194503 76 57 1.0 3.0 0.00 0.00 0.00 76 1024.9
20260831193504 76 65 2.0 3.0 0.00 0.00 0.00 75 1025.0
20260831193003 76 66 1.0 3.0 0.00 0.00 0.00 75 1024.9
20260831192504 77 86 1.0 3.0 0.00 0.00 0.00 74 1024.9
20260831192004 77 54 2.0 3.0 0.00 0.00 0.00 74 1024.9
20260831191503 77 113 1.0 5.0 0.00 0.00 0.00 74 1024.9
20260831191004 77 61 1.0 3.0 0.00 0.00 0.00 73 1024.7
20260831190504 78 56 2.0 6.0 0.00 0.00 0.00 73 1024.5
20260831190004 78 34 2.0 5.0 0.00 0.00 0.00 72 1024.5
20260831185504 78 110 2.0 3.0 0.00 0.00 0.00 72 1024.3
20260831185004 78 66 2.0 3.0 0.00 0.00 0.00 71 1024.4
20260831184505 79 43 1.0 3.0 0.00 0.00 0.00 70 1024.3
20260831184004 79 68 2.0 6.0 0.00 0.00 0.00 70 1024.3
20260831183503 80 77 2.0 5.0 0.00 0.00 0.00 69 1024.3
20260831183004 80 75 1.0 3.0 0.00 0.00 0.00 67 1024.2
20260831182504 80 49 1.0 5.0 0.00 0.00 0.00 67 1024.1
20260831182004 80 39 1.0 6.0 0.00 0.00 0.00 66 1024.0
20260831181503 81 50 2.0 3.0 0.00 0.00 0.00 65 1023.9
20260831181003 81 75 1.0 3.0 0.00 0.00 0.00 65 1024.0
20260831180504 81 68 2.0 6.0 0.00 0.00 0.00 64 1024.1
20260831180005 81 60 3.0 7.0 0.00 0.00 0.00 63 1024.0
20260831175504 81 62 2.0 8.0 0.00 0.00 0.00 63 1024.0
20260831175004 82 35 3.0 6.0 0.00 0.00 0.00 62 1024.2
20260831174504 82 59 3.0 8.0 0.00 0.00 0.00 62 1024.2
20260831174004 82 57 2.0 7.0 0.00 0.00 0.00 62 1024.1
20260831173003 82 58 4.0 8.0 0.00 0.00 0.00 62 1024.0
20260831172503 82 40 5.0 9.0 0.00 0.00 0.00 61 1024.0
20260831172003 83 53 6.0 8.0 0.00 0.00 0.00 61 1023.9
20260831171504 83 49 3.0 8.0 0.00 0.00 0.00 60 1023.9
20260831171004 84 59 5.0 9.0 0.00 0.00 0.00 59 1023.8